Tracking 30685 objects as of 17-Jun-2025
HD Live streaming from Space Station
objects crossing your sky now

NOAA 16 DEB

Track NOAA 16 DEB now!
10-day predictions


NORAD ID: 41365
Int'l Code: 2000-055JJ
Perigee: 710.5 km
Apogee: 757.5 km
Inclination: 98.9 °
Period: 99.3 minutes
Semi major axis: 7105 km
RCS: Unknown
Launch date: September 21, 2000
Source: United States (US)
Launch site: AIR FORCE WESTERN TEST RANGE (AFWTR)

Note: This is SATELLITE DEBRIS
Your satellite tracking list
Your tracking list is empty




NASA's NSSDC Master Catalog

Two Line Element Set (TLE):
1 41365U 00055JJ  25167.40046241  .00006422  00000-0  16717-2 0  9999
2 41365  98.9228 327.5043 0033064 137.1532 223.2246 14.49619594486440
Source of the keplerian elements: AFSPC